User: anonymous   Login
Location: Unspecified
(0.0000°N, 0.0000°E)
Time: 08:53:28
(UTC+00:00)
Language:

STARLINK-4178 - Orbit

View from above orbital plane
View from above orbital plane
View from above satellite
View from above satellite

Ground track
Ground track

The orbit is defined by the following mean orbital elements,

1 53277U          26145.39079488 +.00000000 +00000-0 -15634-4 0 00007
2 53277  53.2125 199.8228 0001463  72.8791 287.2361 15.08845836    08
Epoch (UTC): 25 May 2026 09:22:44
Eccentricity: 0.0001463
inclination: 53.2125°
perigee height: 539 km
apogee height: 541 km
right ascension of ascending node: 199.8228°
argument of perigee: 72.8791°
revolutions per day: 15.08845836
mean anomaly at epoch: 287.2361°

The dashed part of the orbit path shows where the satellite is in the earth's shadow,  

DLR